T 1996 Feb. 19.41465 TT Marsden q 0.0054381 (2000.0) P Q Peri. 111.25724 +0.00267959 -0.90076584 Node 33.01709 -0.90972531 -0.18251800 e 1.0 Incl. 127.15191 +0.41520198 -0.39409146 >From 8 observations 1996 Feb. 18.
m1 = 14.5 + 5 logΔ + 10 log r